Location: Unspecified
(0.0000°N, 0.0000°E)
Time: 21:35:59
(UTC+00:00)

GAZELLE - Visible Passes

Search period start: 27 February 2024 00:00
Search period end: 08 March 2024 00:00
Orbit: 743 x 761 km, 98.3° (Epoch: 26 February)

Date Brightness Start Highest point End Pass type
(mag) Time Alt. Az. Time Alt. Az. Time Alt. Az.
27 Feb ? 04:53:58 10° NNE 04:58:49 58° ESE 05:03:41 10° S visible
28 Feb ? 04:15:01 10° ENE 04:18:18 18° ESE 04:21:34 10° SE visible
29 Feb ? 05:11:15 10° N 05:16:12 84° W 05:21:11 10° SSW visible
01 Mar ? 04:31:24 10° NE 04:35:39 29° ESE 04:39:55 10° SSE visible
02 Mar ? 05:28:48 10° N 05:33:35 50° WNW 05:38:22 10° SSW visible
03 Mar ? 04:48:16 10° NNE 04:53:02 49° ESE 04:57:48 10° S visible
04 Mar ? 04:09:44 10° ENE 04:12:30 15° ESE 04:15:17 10° SE visible
04 Mar ? 05:46:41 10° NNW 05:50:57 30° WNW 05:55:15 10° SW visible
05 Mar ? 05:05:27 10° NNE 05:10:24 83° ESE 05:15:23 10° S visible
06 Mar ? 04:25:52 10° NE 04:29:52 25° ESE 04:33:53 10° SSE visible
07 Mar ? 05:22:55 10° N 05:27:46 59° WNW 05:32:39 10° SSW visible
